TimeCDT,TemperatureF,Dew PointF,Humidity,Sea Level PressureIn,VisibilityMPH,Wind Direction,Wind SpeedMPH,Gust SpeedMPH,PrecipitationIn,Events,Conditions,WindDirDegrees,DateUTC
12:53 AM,66.0,63.0,90,30.00,10.0,Calm,Calm,-,N/A,,Clear,0,2013-08-09 05:53:00
1:53 AM,64.0,62.1,93,30.01,10.0,Calm,Calm,-,N/A,,Clear,0,2013-08-09 06:53:00
2:53 AM,64.9,64.0,97,29.99,10.0,Calm,Calm,-,N/A,,Clear,0,2013-08-09 07:53:00
3:53 AM,64.9,63.0,93,29.99,9.0,West,4.6,-,N/A,,Clear,260,2013-08-09 08:53:00
4:53 AM,64.0,63.0,96,30.00,6.0,NW,4.6,-,N/A,,Clear,310,2013-08-09 09:53:00
5:53 AM,64.0,63.0,96,30.01,9.0,Calm,Calm,-,N/A,,Clear,0,2013-08-09 10:53:00
6:53 AM,64.9,62.1,90,30.02,9.0,Calm,Calm,-,N/A,,Clear,0,2013-08-09 11:53:00
7:53 AM,69.1,64.0,84,30.02,10.0,NW,3.5,-,N/A,,Clear,310,2013-08-09 12:53:00
8:53 AM,72.0,64.9,78,30.03,10.0,WNW,3.5,-,N/A,,Clear,290,2013-08-09 13:53:00
9:53 AM,73.9,64.0,71,30.04,10.0,NW,5.8,-,N/A,,Clear,320,2013-08-09 14:53:00
10:53 AM,75.0,64.0,69,30.04,10.0,Calm,Calm,-,N/A,,Clear,0,2013-08-09 15:53:00
11:53 AM,77.0,64.9,66,30.04,10.0,Variable,3.5,-,N/A,,Clear,0,2013-08-09 16:53:00
12:53 PM,79.0,64.9,62,30.03,10.0,NW,4.6,-,N/A,,Scattered Clouds,320,2013-08-09 17:53:00
1:53 PM,78.1,64.9,64,30.02,10.0,Calm,Calm,-,N/A,,Mostly Cloudy,0,2013-08-09 18:53:00
2:53 PM,80.1,64.9,60,30.01,10.0,WSW,5.8,-,N/A,,Clear,250,2013-08-09 19:53:00
3:53 PM,73.9,66.0,76,30.02,10.0,North,13.8,-,N/A,,Mostly Cloudy,360,2013-08-09 20:53:00
4:53 PM,75.9,66.9,74,30.04,10.0,NNE,5.8,-,N/A,,Mostly Cloudy,30,2013-08-09 21:53:00
5:53 PM,75.9,66.0,71,30.03,10.0,North,5.8,-,N/A,,Clear,10,2013-08-09 22:53:00
6:53 PM,75.0,64.9,71,30.03,10.0,North,6.9,-,N/A,,Clear,10,2013-08-09 23:53:00
7:53 PM,72.0,64.0,76,30.04,10.0,North,4.6,-,N/A,,Clear,360,2013-08-10 00:53:00
8:53 PM,69.1,63.0,81,30.06,10.0,North,8.1,-,N/A,,Clear,360,2013-08-10 01:53:00
9:53 PM,66.9,61.0,81,30.09,10.0,North,5.8,-,N/A,,Clear,360,2013-08-10 02:53:00
10:53 PM,64.9,60.1,84,30.10,10.0,North,6.9,-,N/A,,Clear,350,2013-08-10 03:53:00
11:53 PM,64.9,59.0,81,30.11,10.0,North,6.9,-,N/A,,Clear,360,2013-08-10 04:53:00